contact:dominique.lefevre@mio.osupytheas.fr, maurice.libes@osupytheas.fr, didier.mallarino@osupytheas.fr
Project:EMSO http://www.emso-fr.org/EMSO-France
Depth: 2436.0 m
Title:EMSO Ligure Ouest : Data MII capteur CSTAR
DateTime,Latitude,Longitude,Instrument_Serial,Reference_Counts,Signal_Counts,Corrected_Signal_raw_counts,Calculated_Beam_c_inverse_meters,Internal_thermistor_counts
DateTime,Latitude,Longitude,Instrument_Serial,Reference_Counts,Signal_Counts,Corrected_Signal_raw_counts,Calculated_Beam_c_inverse_meters,Internal_thermistor_counts
2024-04-07T00:02:52,42.805,6.029,CST-1368DR,4103,4285,11066,01.378,553
2024-04-07T00:05:53,42.805,6.029,CST-1368DR,4103,4285,11068,01.377,553
2024-04-07T00:08:55,42.805,6.029,CST-1368DR,4103,4287,11073,01.375,553
2024-04-07T00:11:56,42.805,6.029,CST-1368DR,4103,4288,11074,01.375,553
2024-04-07T00:14:58,42.805,6.029,CST-1368DR,4103,4285,11066,01.378,553
2024-04-07T00:18:00,42.805,6.029,CST-1368DR,4103,4283,11062,01.379,553
2024-04-07T00:21:01,42.805,6.029,CST-1368DR,4103,4284,11064,01.378,553
2024-04-07T00:24:03,42.805,6.029,CST-1368DR,4103,4285,11067,01.377,553
2024-04-07T00:27:04,42.805,6.029,CST-1368DR,4103,4288,11075,01.374,553
2024-04-07T00:30:06,42.805,6.029,CST-1368DR,4103,4283,11061,01.379,553
2024-04-07T00:33:08,42.805,6.029,CST-1368DR,4103,4285,11067,01.377,553
2024-04-07T00:36:09,42.805,6.029,CST-1368DR,4103,4285,11066,01.378,553
2024-04-07T00:39:11,42.805,6.029,CST-1368DR,4103,4291,11083,01.372,553
2024-04-07T00:42:12,42.805,6.029,CST-1368DR,4103,4284,11064,01.378,553
2024-04-07T00:45:14,42.805,6.029,CST-1368DR,4103,4285,11067,01.377,553
2024-04-07T00:48:15,42.805,6.029,CST-1368DR,4103,4284,11063,01.379,553
2024-04-07T00:51:17,42.805,6.029,CST-1368DR,4103,4284,11064,01.378,553
2024-04-07T00:54:19,42.805,6.029,CST-1368DR,4103,4288,11075,01.374,553
2024-04-07T00:57:20,42.805,6.029,CST-1368DR,4103,4288,11075,01.374,553
2024-04-07T01:00:22,42.805,6.029,CST-1368DR,4103,4283,11060,01.380,553
2024-04-07T01:03:23,42.805,6.029,CST-1368DR,4103,4282,11058,01.381,553
2024-04-07T01:06:25,42.805,6.029,CST-1368DR,4103,4281,11057,01.381,553
2024-04-07T01:09:26,42.805,6.029,CST-1368DR,4103,4286,11070,01.376,553
2024-04-07T01:12:28,42.805,6.029,CST-1368DR,4103,4283,11062,01.379,553
2024-04-07T01:15:30,42.805,6.029,CST-1368DR,4103,4284,11064,01.378,553
2024-04-07T01:18:31,42.805,6.029,CST-1368DR,4103,4282,11058,01.381,553
2024-04-07T01:21:33,42.805,6.029,CST-1368DR,4103,4287,11073,01.375,553
2024-04-07T01:24:34,42.805,6.029,CST-1368DR,4103,4284,11064,01.378,553
2024-04-07T01:27:36,42.805,6.029,CST-1368DR,4103,4283,11060,01.380,553
2024-04-07T01:30:38,42.805,6.029,CST-1368DR,4103,4283,11062,01.379,553
2024-04-07T01:33:39,42.805,6.029,CST-1368DR,4103,4286,11070,01.376,553
2024-04-07T01:36:41,42.805,6.029,CST-1368DR,4103,4284,11064,01.378,553
2024-04-07T01:39:42,42.805,6.029,CST-1368DR,4103,4286,11069,01.377,553
2024-04-07T01:42:44,42.805,6.029,CST-1368DR,4103,4288,11075,01.374,553
2024-04-07T01:45:45,42.805,6.029,CST-1368DR,4103,4289,11078,01.373,553
2024-04-07T01:48:47,42.805,6.029,CST-1368DR,4103,4284,11065,01.378,553
2024-04-07T01:51:49,42.805,6.029,CST-1368DR,4103,4284,11065,01.378,553
2024-04-07T01:54:50,42.805,6.029,CST-1368DR,4103,4288,11073,01.375,553
2024-04-07T01:57:52,42.805,6.029,CST-1368DR,4103,4286,11070,01.376,553
2024-04-07T02:00:53,42.805,6.029,CST-1368DR,4103,4285,11067,01.377,553
2024-04-07T02:03:55,42.805,6.029,CST-1368DR,4103,4284,11063,01.379,553
2024-04-07T02:06:56,42.805,6.029,CST-1368DR,4103,4284,11063,01.379,553
2024-04-07T02:09:58,42.805,6.029,CST-1368DR,4103,4284,11064,01.378,553
2024-04-07T02:13:00,42.805,6.029,CST-1368DR,4103,4287,11073,01.375,553
2024-04-07T02:16:01,42.805,6.029,CST-1368DR,4103,4285,11068,01.377,553
2024-04-07T02:19:03,42.805,6.029,CST-1368DR,4103,4287,11071,01.376,553
2024-04-07T02:22:04,42.805,6.029,CST-1368DR,4103,4284,11064,01.378,553
2024-04-07T02:25:06,42.805,6.029,CST-1368DR,4103,4284,11063,01.379,553
2024-04-07T02:28:08,42.805,6.029,CST-1368DR,4103,4288,11074,01.375,553
2024-04-07T02:31:09,42.805,6.029,CST-1368DR,4103,4285,11066,01.378,553
2024-04-07T02:34:11,42.805,6.029,CST-1368DR,4103,4288,11074,01.375,553
2024-04-07T02:37:12,42.805,6.029,CST-1368DR,4103,4291,11081,01.372,553
2024-04-07T02:40:14,42.805,6.029,CST-1368DR,4103,4281,11056,01.381,553
2024-04-07T02:43:15,42.805,6.029,CST-1368DR,4103,4283,11062,01.379,553
2024-04-07T02:46:17,42.805,6.029,CST-1368DR,4103,4283,11061,01.379,553
2024-04-07T02:49:19,42.805,6.029,CST-1368DR,4103,4290,11080,01.373,553
2024-04-07T02:52:20,42.805,6.029,CST-1368DR,4103,4288,11074,01.375,553
2024-04-07T02:55:22,42.805,6.029,CST-1368DR,4103,4286,11070,01.376,553
2024-04-07T02:58:23,42.805,6.029,CST-1368DR,4103,4284,11063,01.379,553
2024-04-07T03:01:25,42.805,6.029,CST-1368DR,4103,4286,11070,01.376,553
2024-04-07T03:04:26,42.805,6.029,CST-1368DR,4103,4290,11078,01.373,553
2024-04-07T03:07:28,42.805,6.029,CST-1368DR,4103,4290,11080,01.373,553
2024-04-07T03:10:30,42.805,6.029,CST-1368DR,4103,4293,11086,01.370,553
2024-04-07T03:13:31,42.805,6.029,CST-1368DR,4103,4293,11088,01.370,553
2024-04-07T03:16:33,42.805,6.029,CST-1368DR,4103,4287,11073,01.375,553
2024-04-07T03:19:34,42.805,6.029,CST-1368DR,4103,4290,11079,01.373,553
2024-04-07T03:22:36,42.805,6.029,CST-1368DR,4103,4286,11069,01.377,553
2024-04-07T03:25:37,42.805,6.029,CST-1368DR,4103,4288,11075,01.374,553
2024-04-07T03:28:39,42.805,6.029,CST-1368DR,4103,4292,11085,01.371,553
2024-04-07T03:31:41,42.805,6.029,CST-1368DR,4103,4288,11074,01.375,553
2024-04-07T03:34:42,42.805,6.029,CST-1368DR,4103,4286,11070,01.376,553
2024-04-07T03:37:44,42.805,6.029,CST-1368DR,4103,4297,11099,01.366,553
2024-04-07T03:40:45,42.805,6.029,CST-1368DR,4103,4298,11100,01.365,553
2024-04-07T03:43:47,42.805,6.029,CST-1368DR,4103,4300,11105,01.364,553
2024-04-07T03:46:49,42.805,6.029,CST-1368DR,4103,4298,11099,01.366,553
2024-04-07T03:49:50,42.805,6.029,CST-1368DR,4103,4298,11100,01.365,553
2024-04-07T03:52:52,42.805,6.029,CST-1368DR,4103,4298,11099,01.366,553
2024-04-07T03:55:53,42.805,6.029,CST-1368DR,4103,4300,11104,01.364,553
2024-04-07T03:58:55,42.805,6.029,CST-1368DR,4103,4297,11099,01.366,553
2024-04-07T04:01:56,42.805,6.029,CST-1368DR,4103,4298,11101,01.365,553
2024-04-07T04:04:58,42.805,6.029,CST-1368DR,4103,4299,11104,01.364,553
2024-04-07T04:08:00,42.805,6.029,CST-1368DR,4103,4299,11104,01.364,553
2024-04-07T04:11:01,42.805,6.029,CST-1368DR,4103,4299,11102,01.365,553
2024-04-07T04:14:03,42.805,6.029,CST-1368DR,4103,4298,11099,01.366,553
2024-04-07T04:17:04,42.805,6.029,CST-1368DR,4103,4299,11102,01.365,552
2024-04-07T04:20:06,42.805,6.029,CST-1368DR,4103,4298,11100,01.365,553
2024-04-07T04:23:08,42.805,6.029,CST-1368DR,4103,4298,11101,01.365,553
2024-04-07T04:26:09,42.805,6.029,CST-1368DR,4103,4298,11100,01.365,553
2024-04-07T04:29:11,42.805,6.029,CST-1368DR,4103,4299,11102,01.365,553
2024-04-07T04:32:12,42.805,6.029,CST-1368DR,4103,4299,11102,01.365,553
2024-04-07T04:35:14,42.805,6.029,CST-1368DR,4103,4298,11099,01.366,553
2024-04-07T04:38:15,42.805,6.029,CST-1368DR,4103,4299,11104,01.364,553
2024-04-07T04:41:17,42.805,6.029,CST-1368DR,4103,4300,11106,01.363,553
2024-04-07T04:44:19,42.805,6.029,CST-1368DR,4103,4300,11104,01.364,553
2024-04-07T04:47:20,42.805,6.029,CST-1368DR,4103,4299,11102,01.365,553
2024-04-07T04:50:22,42.805,6.029,CST-1368DR,4103,4299,11102,01.365,553
2024-04-07T04:53:23,42.805,6.029,CST-1368DR,4103,4300,11105,01.364,553
2024-04-07T04:56:25,42.805,6.029,CST-1368DR,4103,4298,11100,01.365,553
2024-04-07T04:59:26,42.805,6.029,CST-1368DR,4103,4299,11102,01.365,553
2024-04-07T05:02:28,42.805,6.029,CST-1368DR,4103,4298,11100,01.365,553
2024-04-07T05:05:30,42.805,6.029,CST-1368DR,4103,4298,11100,01.365,553
2024-04-07T05:08:31,42.805,6.029,CST-1368DR,4103,4300,11104,01.364,553
2024-04-07T05:11:33,42.805,6.029,CST-1368DR,4103,4299,11104,01.364,553
2024-04-07T05:14:34,42.805,6.029,CST-1368DR,4103,4299,11104,01.364,553
2024-04-07T05:17:36,42.805,6.029,CST-1368DR,4103,4298,11101,01.365,553
2024-04-07T05:20:38,42.805,6.029,CST-1368DR,4103,4300,11104,01.364,553
2024-04-07T05:23:39,42.805,6.029,CST-1368DR,4103,4300,11106,01.363,553
2024-04-07T05:26:41,42.805,6.029,CST-1368DR,4103,4299,11102,01.365,553
2024-04-07T05:29:42,42.805,6.029,CST-1368DR,4103,4298,11099,01.366,553
2024-04-07T05:32:44,42.805,6.029,CST-1368DR,4103,4300,11106,01.363,553
2024-04-07T05:35:45,42.805,6.029,CST-1368DR,4103,4299,11102,01.365,553
2024-04-07T05:38:47,42.805,6.029,CST-1368DR,4103,4299,11102,01.365,553
2024-04-07T05:41:49,42.805,6.029,CST-1368DR,4103,4300,11106,01.363,553
2024-04-07T05:44:50,42.805,6.029,CST-1368DR,4103,4298,11100,01.365,553
2024-04-07T05:47:52,42.805,6.029,CST-1368DR,4103,4298,11101,01.365,553
2024-04-07T05:50:53,42.805,6.029,CST-1368DR,4103,4300,11105,01.364,553
2024-04-07T05:53:55,42.805,6.029,CST-1368DR,4103,4301,11107,01.363,553
2024-04-07T05:56:56,42.805,6.029,CST-1368DR,4103,4295,11093,01.368,553
2024-04-07T05:59:58,42.805,6.029,CST-1368DR,4103,4299,11102,01.365,553
2024-04-07T06:03:00,42.805,6.029,CST-1368DR,4103,4300,11104,01.364,553
2024-04-07T06:06:01,42.805,6.029,CST-1368DR,4103,4298,11101,01.365,553
2024-04-07T06:09:03,42.805,6.029,CST-1368DR,4103,4299,11102,01.365,553
2024-04-07T06:12:04,42.805,6.029,CST-1368DR,4103,4298,11100,01.365,553
2024-04-07T06:15:06,42.805,6.029,CST-1368DR,4103,4300,11105,01.364,553
2024-04-07T06:18:08,42.805,6.029,CST-1368DR,4103,4298,11099,01.366,553
2024-04-07T06:21:09,42.805,6.029,CST-1368DR,4103,4299,11102,01.365,553
2024-04-07T06:24:11,42.805,6.029,CST-1368DR,4103,4298,11099,01.366,553
2024-04-07T06:27:12,42.805,6.029,CST-1368DR,4103,4300,11106,01.363,553
2024-04-07T06:30:14,42.805,6.029,CST-1368DR,4103,4298,11100,01.365,553
2024-04-07T06:33:15,42.805,6.029,CST-1368DR,4103,4298,11099,01.366,553
2024-04-07T06:36:17,42.805,6.029,CST-1368DR,4103,4298,11100,01.365,553
2024-04-07T06:39:19,42.805,6.029,CST-1368DR,4103,4300,11106,01.363,553
2024-04-07T06:42:20,42.805,6.029,CST-1368DR,4103,4300,11106,01.363,553
2024-04-07T06:45:22,42.805,6.029,CST-1368DR,4103,4297,11098,01.366,553
2024-04-07T06:48:23,42.805,6.029,CST-1368DR,4103,4299,11102,01.365,553
2024-04-07T06:51:25,42.805,6.029,CST-1368DR,4103,4298,11100,01.365,553
2024-04-07T06:54:26,42.805,6.029,CST-1368DR,4103,4299,11102,01.365,553
2024-04-07T06:57:28,42.805,6.029,CST-1368DR,4103,4298,11101,01.365,553
2024-04-07T07:00:30,42.805,6.029,CST-1368DR,4103,4300,11104,01.364,553
2024-04-07T07:03:31,42.805,6.029,CST-1368DR,4103,4299,11104,01.364,553
2024-04-07T07:06:33,42.805,6.029,CST-1368DR,4103,4301,11108,01.363,553
2024-04-07T07:09:34,42.805,6.029,CST-1368DR,4103,4301,11108,01.363,553
2024-04-07T07:12:36,42.805,6.029,CST-1368DR,4103,4301,11107,01.363,553
2024-04-07T07:15:38,42.805,6.029,CST-1368DR,4103,4301,11108,01.363,553
2024-04-07T07:18:39,42.805,6.029,CST-1368DR,4103,4302,11109,01.362,553
2024-04-07T07:21:41,42.805,6.029,CST-1368DR,4103,4302,11110,01.362,553
2024-04-07T07:24:42,42.805,6.029,CST-1368DR,4103,4301,11108,01.363,553
2024-04-07T07:27:44,42.805,6.029,CST-1368DR,4103,4301,11108,01.363,553
2024-04-07T07:30:45,42.805,6.029,CST-1368DR,4103,4302,11109,01.362,553
2024-04-07T07:33:47,42.805,6.029,CST-1368DR,4103,4301,11109,01.362,553
2024-04-07T07:36:49,42.805,6.029,CST-1368DR,4103,4301,11107,01.363,553
2024-04-07T07:39:50,42.805,6.029,CST-1368DR,4103,4301,11107,01.363,553
2024-04-07T07:42:52,42.805,6.029,CST-1368DR,4103,4302,11111,01.361,553
2024-04-07T07:45:53,42.805,6.029,CST-1368DR,4103,4300,11106,01.363,553
2024-04-07T07:48:55,42.805,6.029,CST-1368DR,4103,4301,11108,01.363,553
2024-04-07T07:51:56,42.805,6.029,CST-1368DR,4102,4302,11112,01.361,553
2024-04-07T07:54:58,42.805,6.029,CST-1368DR,4102,4302,11114,01.360,553
2024-04-07T07:58:00,42.805,6.029,CST-1368DR,4103,4302,11109,01.362,553
2024-04-07T08:01:01,42.805,6.029,CST-1368DR,4102,4302,11112,01.361,553
2024-04-07T08:04:03,42.805,6.029,CST-1368DR,4102,4300,11107,01.363,553
2024-04-07T08:07:04,42.805,6.029,CST-1368DR,4103,4300,11106,01.363,553
2024-04-07T08:10:06,42.805,6.029,CST-1368DR,4102,4300,11108,01.363,553
2024-04-07T08:13:07,42.805,6.029,CST-1368DR,4102,4300,11108,01.363,553
2024-04-07T08:16:09,42.805,6.029,CST-1368DR,4103,4301,11107,01.363,553
2024-04-07T08:19:11,42.805,6.029,CST-1368DR,4102,4302,11113,01.361,553
2024-04-07T08:22:12,42.805,6.029,CST-1368DR,4102,4300,11108,01.363,553
2024-04-07T08:25:14,42.805,6.029,CST-1368DR,4102,4301,11109,01.362,553
2024-04-07T08:28:15,42.805,6.029,CST-1368DR,4103,4302,11109,01.362,553
2024-04-07T08:31:17,42.805,6.029,CST-1368DR,4102,4302,11112,01.361,553
2024-04-07T08:34:19,42.805,6.029,CST-1368DR,4102,4299,11106,01.363,553
2024-04-07T08:37:20,42.805,6.029,CST-1368DR,4102,4301,11111,01.361,553
2024-04-07T08:40:22,42.805,6.029,CST-1368DR,4102,4302,11113,01.361,553
2024-04-07T08:43:23,42.805,6.029,CST-1368DR,4102,4302,11113,01.361,553
2024-04-07T08:46:25,42.805,6.029,CST-1368DR,4103,4301,11108,01.363,553
2024-04-07T08:49:26,42.805,6.029,CST-1368DR,4102,4299,11106,01.363,553
2024-04-07T08:52:28,42.805,6.029,CST-1368DR,4103,4299,11104,01.364,553
2024-04-07T08:55:30,42.805,6.029,CST-1368DR,4102,4302,11112,01.361,553
2024-04-07T08:58:31,42.805,6.029,CST-1368DR,4103,4300,11104,01.364,553
2024-04-07T09:01:33,42.805,6.029,CST-1368DR,4102,4300,11109,01.362,553
2024-04-07T09:04:34,42.805,6.029,CST-1368DR,4102,4300,11107,01.363,553
2024-04-07T09:07:36,42.805,6.029,CST-1368DR,4103,4301,11108,01.363,553
2024-04-07T09:10:38,42.805,6.029,CST-1368DR,4102,4300,11109,01.362,553
2024-04-07T09:13:39,42.805,6.029,CST-1368DR,4102,4299,11106,01.363,553
2024-04-07T09:16:41,42.805,6.029,CST-1368DR,4103,4301,11109,01.362,553
2024-04-07T09:19:42,42.805,6.029,CST-1368DR,4103,4301,11109,01.362,553
2024-04-07T09:22:44,42.805,6.029,CST-1368DR,4102,4301,11111,01.361,553
2024-04-07T09:25:45,42.805,6.029,CST-1368DR,4103,4301,11108,01.363,553
2024-04-07T09:28:47,42.805,6.029,CST-1368DR,4102,4301,11111,01.361,553
2024-04-07T09:31:49,42.805,6.029,CST-1368DR,4102,4300,11108,01.363,553
2024-04-07T09:34:50,42.805,6.029,CST-1368DR,4103,4301,11108,01.363,553
2024-04-07T09:37:52,42.805,6.029,CST-1368DR,4102,4301,11109,01.362,553
2024-04-07T09:40:53,42.805,6.029,CST-1368DR,4102,4301,11109,01.362,553
2024-04-07T09:43:55,42.805,6.029,CST-1368DR,4102,4301,11111,01.361,553
2024-04-07T09:46:56,42.805,6.029,CST-1368DR,4102,4299,11106,01.363,553
2024-04-07T09:49:58,42.805,6.029,CST-1368DR,4102,4301,11110,01.362,553
2024-04-07T09:53:00,42.805,6.029,CST-1368DR,4103,4301,11108,01.363,553
2024-04-07T09:56:01,42.805,6.029,CST-1368DR,4102,4301,11111,01.361,553
2024-04-07T09:59:03,42.805,6.029,CST-1368DR,4102,4302,11113,01.361,553
2024-04-07T10:02:04,42.805,6.029,CST-1368DR,4102,4301,11109,01.362,553
2024-04-07T10:05:06,42.805,6.029,CST-1368DR,4102,4301,11111,01.361,553
2024-04-07T10:08:08,42.805,6.029,CST-1368DR,4102,4303,11116,01.360,553
2024-04-07T10:11:09,42.805,6.029,CST-1368DR,4102,4302,11112,01.361,553
2024-04-07T10:14:11,42.805,6.029,CST-1368DR,4102,4301,11110,01.362,553
2024-04-07T10:17:12,42.805,6.029,CST-1368DR,4102,4302,11112,01.361,553
2024-04-07T10:20:14,42.805,6.029,CST-1368DR,4102,4302,11113,01.361,553
2024-04-07T10:23:15,42.805,6.029,CST-1368DR,4102,4302,11113,01.361,553
2024-04-07T10:26:17,42.805,6.029,CST-1368DR,4102,4302,11113,01.361,553
2024-04-07T10:29:19,42.805,6.029,CST-1368DR,4102,4302,11113,01.361,553
2024-04-07T10:32:20,42.805,6.029,CST-1368DR,4102,4301,11109,01.362,553
2024-04-07T10:35:22,42.805,6.029,CST-1368DR,4102,4301,11111,01.361,553
2024-04-07T10:38:23,42.805,6.029,CST-1368DR,4102,4302,11113,01.361,553
2024-04-07T10:41:25,42.805,6.029,CST-1368DR,4102,4302,11113,01.361,553
2024-04-07T10:44:26,42.805,6.029,CST-1368DR,4102,4301,11110,01.362,553
2024-04-07T10:47:28,42.805,6.029,CST-1368DR,4102,4301,11111,01.361,553
2024-04-07T10:50:30,42.805,6.029,CST-1368DR,4102,4299,11106,01.363,553
2024-04-07T10:53:31,42.805,6.029,CST-1368DR,4102,4301,11110,01.362,553
2024-04-07T10:56:33,42.805,6.029,CST-1368DR,4102,4301,11111,01.361,553
2024-04-07T10:59:34,42.805,6.029,CST-1368DR,4102,4302,11112,01.361,553
2024-04-07T11:02:36,42.805,6.029,CST-1368DR,4102,4301,11111,01.361,553
2024-04-07T11:05:38,42.805,6.029,CST-1368DR,4102,4304,11118,01.359,553
2024-04-07T11:08:39,42.805,6.029,CST-1368DR,4102,4302,11113,01.361,553
2024-04-07T11:11:41,42.805,6.029,CST-1368DR,4102,4302,11112,01.361,553
2024-04-07T11:14:42,42.805,6.029,CST-1368DR,4102,4300,11108,01.363,553
2024-04-07T11:17:44,42.805,6.029,CST-1368DR,4102,4302,11113,01.361,553
2024-04-07T11:20:45,42.805,6.029,CST-1368DR,4102,4302,11114,01.360,553
2024-04-07T11:23:47,42.805,6.029,CST-1368DR,4102,4301,11111,01.361,553
2024-04-07T11:26:49,42.805,6.029,CST-1368DR,4102,4301,11111,01.361,553
2024-04-07T11:29:50,42.805,6.029,CST-1368DR,4102,4302,11112,01.361,553
2024-04-07T11:32:52,42.805,6.029,CST-1368DR,4102,4303,11115,01.360,553
2024-04-07T11:35:53,42.805,6.029,CST-1368DR,4102,4301,11111,01.361,553
2024-04-07T11:38:55,42.805,6.029,CST-1368DR,4102,4301,11111,01.361,553
2024-04-07T11:41:56,42.805,6.029,CST-1368DR,4102,4299,11105,01.364,553
2024-04-07T11:44:58,42.805,6.029,CST-1368DR,4102,4301,11111,01.361,553
2024-04-07T11:48:00,42.805,6.029,CST-1368DR,4102,4301,11110,01.362,553
2024-04-07T11:51:01,42.805,6.029,CST-1368DR,4102,4301,11110,01.362,553
2024-04-07T11:54:03,42.805,6.029,CST-1368DR,4102,4300,11107,01.363,553
2024-04-07T11:57:04,42.805,6.029,CST-1368DR,4102,4301,11109,01.362,553
2024-04-07T12:00:06,42.805,6.029,CST-1368DR,4102,4300,11109,01.362,553
2024-04-07T12:03:08,42.805,6.029,CST-1368DR,4102,4300,11108,01.363,553
2024-04-07T12:06:09,42.805,6.029,CST-1368DR,4102,4301,11109,01.362,553
2024-04-07T12:09:11,42.805,6.029,CST-1368DR,4102,4301,11111,01.361,553
2024-04-07T12:12:12,42.805,6.029,CST-1368DR,4102,4300,11107,01.363,553
2024-04-07T12:15:14,42.805,6.029,CST-1368DR,4102,4300,11107,01.363,553
2024-04-07T12:18:15,42.805,6.029,CST-1368DR,4102,4301,11109,01.362,553
2024-04-07T12:21:17,42.805,6.029,CST-1368DR,4102,4301,11111,01.361,553
2024-04-07T12:24:19,42.805,6.029,CST-1368DR,4102,4300,11109,01.362,553
2024-04-07T12:27:20,42.805,6.029,CST-1368DR,4102,4300,11108,01.363,553
2024-04-07T12:30:22,42.805,6.029,CST-1368DR,4102,4298,11102,01.365,553
2024-04-07T12:33:23,42.805,6.029,CST-1368DR,4102,4301,11111,01.361,553
2024-04-07T12:36:25,42.805,6.029,CST-1368DR,4102,4302,11113,01.361,553
2024-04-07T12:39:26,42.805,6.029,CST-1368DR,4102,4302,11112,01.361,553
2024-04-07T12:42:28,42.805,6.029,CST-1368DR,4102,4301,11110,01.362,553
2024-04-07T12:45:30,42.805,6.029,CST-1368DR,4102,4300,11109,01.362,553
2024-04-07T12:48:31,42.805,6.029,CST-1368DR,4102,4297,11101,01.365,553
2024-04-07T12:51:33,42.805,6.029,CST-1368DR,4102,4301,11111,01.361,553
2024-04-07T12:54:34,42.805,6.029,CST-1368DR,4102,4301,11111,01.361,553
2024-04-07T12:57:36,42.805,6.029,CST-1368DR,4102,4302,11113,01.361,553
2024-04-07T13:00:37,42.805,6.029,CST-1368DR,4102,4302,11113,01.361,553
2024-04-07T13:03:39,42.805,6.029,CST-1368DR,4102,4298,11104,01.364,553
2024-04-07T13:06:41,42.805,6.029,CST-1368DR,4102,4299,11105,01.364,553
2024-04-07T13:09:42,42.805,6.029,CST-1368DR,4102,4300,11108,01.363,553
2024-04-07T13:12:44,42.805,6.029,CST-1368DR,4102,4302,11112,01.361,553
2024-04-07T13:15:45,42.805,6.029,CST-1368DR,4102,4301,11111,01.361,553
2024-04-07T13:18:47,42.805,6.029,CST-1368DR,4102,4301,11109,01.362,553
2024-04-07T13:21:49,42.805,6.029,CST-1368DR,4102,4300,11108,01.363,553
2024-04-07T13:24:50,42.805,6.029,CST-1368DR,4102,4301,11111,01.361,553
2024-04-07T13:27:52,42.805,6.029,CST-1368DR,4102,4302,11112,01.361,553
2024-04-07T13:30:53,42.805,6.029,CST-1368DR,4102,4301,11111,01.361,553
2024-04-07T13:33:55,42.805,6.029,CST-1368DR,4102,4302,11112,01.361,553
2024-04-07T13:36:56,42.805,6.029,CST-1368DR,4102,4303,11116,01.360,553
2024-04-07T13:39:58,42.805,6.029,CST-1368DR,4102,4300,11108,01.363,553
2024-04-07T13:43:00,42.805,6.029,CST-1368DR,4102,4302,11114,01.360,553
2024-04-07T13:46:01,42.805,6.029,CST-1368DR,4102,4301,11111,01.361,553
2024-04-07T13:49:03,42.805,6.029,CST-1368DR,4102,4301,11109,01.362,553
2024-04-07T13:52:04,42.805,6.029,CST-1368DR,4102,4301,11110,01.362,553
2024-04-07T13:55:06,42.805,6.029,CST-1368DR,4102,4301,11111,01.361,553
2024-04-07T13:58:07,42.805,6.029,CST-1368DR,4102,4300,11108,01.363,553
2024-04-07T14:01:09,42.805,6.029,CST-1368DR,4102,4301,11110,01.362,553
2024-04-07T14:04:11,42.805,6.029,CST-1368DR,4102,4302,11113,01.361,553
2024-04-07T14:07:12,42.805,6.029,CST-1368DR,4102,4301,11110,01.362,553
2024-04-07T14:10:14,42.805,6.029,CST-1368DR,4102,4302,11113,01.361,553
2024-04-07T14:13:15,42.805,6.029,CST-1368DR,4102,4301,11109,01.362,553
2024-04-07T14:16:17,42.805,6.029,CST-1368DR,4102,4301,11111,01.361,553
2024-04-07T14:19:19,42.805,6.029,CST-1368DR,4102,4299,11105,01.364,553
2024-04-07T14:22:20,42.805,6.029,CST-1368DR,4102,4300,11109,01.362,553
2024-04-07T14:25:22,42.805,6.029,CST-1368DR,4102,4300,11108,01.363,553
2024-04-07T14:28:23,42.805,6.029,CST-1368DR,4102,4301,11111,01.361,553
2024-04-07T14:31:25,42.805,6.029,CST-1368DR,4102,4301,11110,01.362,553
2024-04-07T14:34:26,42.805,6.029,CST-1368DR,4102,4301,11109,01.362,553
2024-04-07T14:37:28,42.805,6.029,CST-1368DR,4102,4300,11108,01.363,553
2024-04-07T14:40:30,42.805,6.029,CST-1368DR,4102,4300,11109,01.362,553
2024-04-07T14:43:31,42.805,6.029,CST-1368DR,4102,4299,11106,01.363,553
2024-04-07T14:46:33,42.805,6.029,CST-1368DR,4102,4300,11109,01.362,553
2024-04-07T14:49:34,42.805,6.029,CST-1368DR,4102,4300,11107,01.363,553
2024-04-07T14:52:36,42.805,6.029,CST-1368DR,4102,4301,11110,01.362,553
2024-04-07T14:55:37,42.805,6.029,CST-1368DR,4102,4300,11109,01.362,553
2024-04-07T14:58:39,42.805,6.029,CST-1368DR,4102,4301,11109,01.362,553
2024-04-07T15:01:41,42.805,6.029,CST-1368DR,4102,4298,11103,01.364,553
2024-04-07T15:04:42,42.805,6.029,CST-1368DR,4102,4300,11109,01.362,553
2024-04-07T15:07:44,42.805,6.029,CST-1368DR,4102,4301,11110,01.362,553
2024-04-07T15:10:45,42.805,6.029,CST-1368DR,4102,4301,11111,01.361,553
2024-04-07T15:13:47,42.805,6.029,CST-1368DR,4102,4301,11110,01.362,553
2024-04-07T15:16:48,42.805,6.029,CST-1368DR,4102,4301,11109,01.362,553
2024-04-07T15:19:50,42.805,6.029,CST-1368DR,4102,4301,11111,01.361,553
2024-04-07T15:22:52,42.805,6.029,CST-1368DR,4102,4301,11109,01.362,553
2024-04-07T15:25:53,42.805,6.029,CST-1368DR,4102,4300,11109,01.362,553
2024-04-07T15:28:55,42.805,6.029,CST-1368DR,4102,4301,11111,01.361,553
2024-04-07T15:31:56,42.805,6.029,CST-1368DR,4102,4301,11109,01.362,553
2024-04-07T15:34:58,42.805,6.029,CST-1368DR,4102,4303,11115,01.360,553
2024-04-07T15:38:00,42.805,6.029,CST-1368DR,4102,4300,11109,01.362,553
2024-04-07T15:41:01,42.805,6.029,CST-1368DR,4102,4301,11111,01.361,553
2024-04-07T15:44:03,42.805,6.029,CST-1368DR,4102,4302,11112,01.361,553
2024-04-07T15:47:04,42.805,6.029,CST-1368DR,4102,4302,11112,01.361,553
2024-04-07T15:50:06,42.805,6.029,CST-1368DR,4102,4301,11110,01.362,553
2024-04-07T15:53:07,42.805,6.029,CST-1368DR,4102,4299,11106,01.363,553
2024-04-07T15:56:09,42.805,6.029,CST-1368DR,4102,4302,11113,01.361,553
2024-04-07T15:59:11,42.805,6.029,CST-1368DR,4102,4302,11112,01.361,553
2024-04-07T16:02:12,42.805,6.029,CST-1368DR,4102,4301,11111,01.361,553
2024-04-07T16:05:14,42.805,6.029,CST-1368DR,4102,4300,11107,01.363,553
2024-04-07T16:08:15,42.805,6.029,CST-1368DR,4102,4301,11110,01.362,553
2024-04-07T16:11:17,42.805,6.029,CST-1368DR,4102,4301,11111,01.361,553
2024-04-07T16:14:19,42.805,6.029,CST-1368DR,4102,4302,11112,01.361,553
2024-04-07T16:17:20,42.805,6.029,CST-1368DR,4102,4300,11108,01.363,553
2024-04-07T16:20:22,42.805,6.029,CST-1368DR,4102,4303,11115,01.360,553
2024-04-07T16:23:23,42.805,6.029,CST-1368DR,4102,4301,11110,01.362,553
2024-04-07T16:26:25,42.805,6.029,CST-1368DR,4102,4302,11112,01.361,553
2024-04-07T16:29:26,42.805,6.029,CST-1368DR,4102,4300,11108,01.363,553
2024-04-07T16:32:28,42.805,6.029,CST-1368DR,4102,4300,11109,01.362,553
2024-04-07T16:35:30,42.805,6.029,CST-1368DR,4102,4301,11111,01.361,553
2024-04-07T16:38:31,42.805,6.029,CST-1368DR,4102,4300,11107,01.363,553